Port Angeles, WA
on Tuesday, December 25, 2012

Tuesday
Previous Day Next Day
Daily Summary
 ActualAverageRecord
Temperature
Mean Temperature °F °F  
Max Temperature 44°F 45°F 56°F (1980)
Min Temperature 36°F 34°F 23°F (1996)
Degree Days
Heating Degree Days 25    
Moisture
Dew Point 35°F   
Average Humidity 87    
Maximum Humidity 93    
Minimum Humidity 79    
Precipitation
Precipitation 0.00 in in in ()
Wind
Wind Speed 3 mph   
Max Wind Speed 9 mph   
Max Gust Speed mph   
Visibility 10 miles   
Events Rain   
Averages and records for this station are not official NWS values.
Key: T is trace of precipitation, MM is missing value
Source: NWS Daily Summary
Seasonal Weather Averages
Time(PST)TemperatureDew PointHumidity Pressure Visibility Wind DirectionWind SpeedGust SpeedPrecipitationEvents Conditions
12:53 AM 36.0°F 33.1°F 89% 29.96 in 10.0 miles Calm Calm - N/A   Overcast
1:53 AM 37.0°F 33.1°F 86% 29.93 in 10.0 miles Calm Calm - N/A   Overcast
2:53 AM 36.0°F 33.1°F 89% 29.88 in 10.0 miles SE 6.9 mph - N/A   Overcast
3:53 AM 37.0°F 33.1°F 86% 29.83 in 10.0 miles Calm Calm - N/A   Overcast
4:53 AM 37.9°F 32.0°F 79% 29.77 in 10.0 miles WSW 5.8 mph - N/A   Overcast
5:53 AM 37.0°F 33.1°F 86% 29.73 in 10.0 miles WSW 5.8 mph - N/A   Overcast
6:53 AM 37.0°F 34.0°F 89% 29.69 in 10.0 miles SW 4.6 mph - N/A   Overcast
7:53 AM 37.0°F 34.0°F 89% 29.65 in 10.0 miles Calm Calm - N/A   Overcast
8:53 AM 37.9°F 34.0°F 86% 29.62 in 10.0 miles Calm Calm - N/A   Overcast
9:53 AM 37.9°F 34.0°F 86% 29.60 in 10.0 miles Calm Calm - 0.00 in Rain Light Rain
10:53 AM 39.0°F 36.0°F 89% 29.57 in 10.0 miles SW 6.9 mph - 0.00 in   Overcast
11:53 AM 41.0°F 35.1°F 79% 29.55 in 10.0 miles Variable 3.5 mph - 0.00 in Rain Light Rain
12:53 PM 41.0°F 37.0°F 86% 29.57 in 10.0 miles WSW 3.5 mph - 0.00 in   Overcast
1:53 PM 43.0°F 37.9°F 82% 29.57 in 10.0 miles WNW 4.6 mph - N/A   Mostly Cloudy
2:53 PM 44.1°F 37.9°F 79% 29.57 in 10.0 miles West 3.5 mph - N/A   Mostly Cloudy
3:53 PM 39.9°F 36.0°F 86% 29.58 in 10.0 miles Calm Calm - N/A   Partly Cloudy
4:53 PM 37.0°F 35.1°F 93% 29.59 in 10.0 miles Calm Calm - N/A   Mostly Cloudy
5:53 PM 37.9°F 36.0°F 93% 29.59 in 10.0 miles WSW 4.6 mph - 0.00 in   Scattered Clouds
6:53 PM 37.9°F 36.0°F 93% 29.59 in 10.0 miles South 3.5 mph - N/A   Mostly Cloudy
7:53 PM 37.0°F 35.1°F 93% 29.59 in 10.0 miles SSW 5.8 mph - N/A   Mostly Cloudy
8:53 PM 36.0°F 34.0°F 93% 29.59 in 10.0 miles South 4.6 mph - N/A   Overcast
9:53 PM 39.9°F 36.0°F 86% 29.61 in 10.0 miles WNW 6.9 mph - N/A   Mostly Cloudy
10:53 PM 39.0°F 36.0°F 89% 29.64 in 10.0 miles West 9.2 mph - N/A   Clear
11:53 PM 39.0°F 36.0°F 89% 29.65 in 10.0 miles WSW 8.1 mph - N/A   Clear
Moon Phase
Dec. 25 Dec. 28 Jan. 04 Jan. 11 Jan. 18
Sunrise:08:03 AM (PST) Moon Rise:02:40 PM (PST)
Sunset:04:25 PM (PST) Moon Set:05:37 AM (PST)

Copyright © 2014 The Weather Underground, Inc.